Location: Isle of Man Observatory
(54.1776°N, 4.6264°W)
Time: 05:50:04
(UTC+02:00)

Mayak - Visible Passes

Search period start: 19 August 2017 00:00
Search period end: 29 August 2017 00:00
Orbit: 585 x 607 km, 97.6° (Epoch: 17 August)

Date Brightness Start Highest point End Pass type
(mag) Time Alt. Az. Time Alt. Az. Time Alt. Az.
19 Aug -0.9 01:58:23 10° NNE 02:02:20 51° E 02:02:20 51° E visible
19 Aug 0.4 03:34:33 10° N 03:37:52 23° WNW 03:38:59 21° W visible
20 Aug -1.2 02:08:07 10° NNE 02:12:08 64° E 02:12:08 64° E visible
20 Aug 0.7 03:44:31 10° NNW 03:47:32 20° WNW 03:48:47 18° W visible
21 Aug 1.1 00:44:22 10° ENE 00:45:16 11° ENE 00:45:16 11° ENE visible
21 Aug -1.3 02:17:53 10° NNE 02:21:55 78° ENE 02:21:55 78° ENE visible
21 Aug 0.9 03:54:32 10° NNW 03:57:13 17° WNW 03:58:34 15° W visible
22 Aug 1.0 00:53:24 10° NE 00:55:03 14° ENE 00:55:03 14° ENE visible
22 Aug -1.3 02:27:40 10° NNE 02:31:42 82° NNW 02:31:42 82° NNW visible
22 Aug 1.0 04:04:37 10° NNW 04:06:52 14° NW 04:08:22 12° WNW visible
23 Aug 0.8 01:02:45 10° NE 01:04:51 16° ENE 01:04:51 16° ENE visible
23 Aug -1.1 02:37:27 10° N 02:41:30 68° WNW 02:41:30 68° WNW visible
23 Aug 1.2 04:14:50 10° NNW 04:16:32 12° NW 04:18:09 10° WNW visible
24 Aug 0.6 01:12:13 10° NE 01:14:38 19° ENE 01:14:38 19° ENE visible
24 Aug -0.9 02:47:16 10° N 02:51:17 55° WNW 02:51:17 55° WNW visible
24 Aug 1.4 04:25:27 10° NW 04:26:10 10° NW 04:26:51 10° WNW visible
25 Aug 0.4 01:21:46 10° NE 01:24:25 23° ENE 01:24:25 23° ENE visible
25 Aug -0.6 02:57:07 10° N 03:01:03 45° WNW 03:01:03 45° WNW visible
26 Aug 0.2 01:31:24 10° NNE 01:34:11 27° ENE 01:34:11 27° ENE visible
26 Aug -0.3 03:06:58 10° N 03:10:49 37° WNW 03:10:51 37° WNW visible
27 Aug 0.0 01:41:03 10° NNE 01:43:58 32° ENE 01:43:58 32° ENE visible
27 Aug 0.0 03:16:51 10° N 03:20:32 31° WNW 03:20:37 31° WNW visible
28 Aug -0.2 01:50:43 10° NNE 01:53:45 37° ENE 01:53:45 37° ENE visible
28 Aug 0.3 03:26:45 10° N 03:30:13 26° WNW 03:30:24 26° WNW visible
